sat.trackr.live / text

‹ back to catalog

STARLINK-30425

NORAD 57850 · 2023-141L

PAYLOAD ACTIVE UNKNOWN

§ Identity

Operator
Country
US
Launch date
2023-09-12
Launch site
AFWTR
Launch vehicle
Mass (kg)
RCS (m²)

Purposes: comms

External: N2YO · Heavens-Above · Gunter

§ Orbital elements

Epoch: 2026-09-20T22:42:11.246400Z

Period
93.85 min
Inclination
53.1593°
Eccentricity
0.0001249
Mean motion
15.34400521 rev/d
Perigee alt
461.8 km
Apogee alt
463.6 km
Semi-major
6,840.8 km
B*
3.5931e-5
RAAN
95.4487°
Arg perigee
86.6907°
Mean anomaly
273.4239°
Rev number
17,024

§ Raw data

STARLINK-304251 57850U 23141L   26263.94596350  .00000838  00000+0  35931-4 0  99992 57850  53.1593  95.4487 0001249  86.6907 273.4239 15.34400521170241

JSON: /api/v1/satellites/57850 · /tle

For live sub-satellite position, see the globe view (requires WebGL).

§ Visibility from observer

Set your observer location to see the next 7 days of passes ≥ 10°. The values pass through the URL so the page stays shareable.

No JS? Fill the form by hand. The geolocation button needs JavaScript.